Volver al catálogo

COSMOS 1287

ActivoMilitarLEO
NORAD 12636·PAYLOAD·🇷🇺 Russia

Lanzado Aug 6, 1981 desde Plesetsk Cosmodrome

Loading…

Próximos Pases (próximas 24 horas)

TLE

ActualizadoSource: Space-Track

Época: Sep 14, 2026, 12:45 UTC

1 12636U 81074A   26257.53146627 -.00000022  00000-0 -43848-4 0  9991
2 12636  74.0303  86.3003 0030946 237.5461 122.2594 12.44356167 49543

Sigue COSMOS 1287 en tiempo real con AllMySat

Download on the App Store